Simultaneous Nadir Overpasses (SNOs) Predictions

Prediction of SNOs between AQUA and METOP-B Satellite Orbit:

Table of predicted SNOs for the next 14.0 days since TLE Epoch: 8/15/2025
Index Date (AQUA) Time (AQUA) Lat,Lon (AQUA) SZA (AQUA ) Date (METOP-B) Time (METOP-B) Lat,Lon (METOP-B) SZA (METOP-B ) Distance(km) Time Diff (sec)
1 08/18/2025 06:41:53 -77.62, -99.81 115.45 08/18/2025 06:40:44 -77.54,-101.82 115.51 48.94 69
2 08/18/2025 07:31:17 77.85, 66.80 64.81 08/18/2025 07:31:17 77.85, 66.96 64.81 3.84 0
3 08/18/2025 08:20:44 -78.28,-127.61 114.73 08/18/2025 08:21:47 -78.31,-123.36 114.72 95.80 63
4 08/20/2025 19:29:55 -77.84, 67.29 114.39 08/20/2025 19:29:36 -77.85, 67.33 114.38 1.82 19
5 08/20/2025 20:19:14 77.86,-125.14 65.64 08/20/2025 20:20:16 77.86,-125.28 65.65 3.32 62
6 08/23/2025 07:28:34 77.83, 67.73 66.44 08/23/2025 07:27:54 77.84, 67.68 66.46 1.84 40
7 08/23/2025 08:17:52 -77.87,-124.77 113.51 08/23/2025 08:18:35 -77.86,-124.90 113.52 3.29 43
8 08/25/2025 19:27:12 -77.86, 67.98 112.67 08/25/2025 19:26:13 -77.84, 68.05 112.69 3.24 59
9 08/25/2025 20:16:31 77.89,-124.47 67.38 08/25/2025 20:16:52 77.89,-124.39 67.37 1.86 21
10 08/28/2025 07:25:45 77.65, 69.34 68.00 08/28/2025 07:24:37 77.56, 67.15 67.91 53.48 68
11 08/28/2025 08:15:07 -77.86,-123.93 111.78 08/28/2025 08:15:11 -77.88,-124.02 111.76 2.90 4



Historial Predications of SNOs between AQUA and METOP-B
